Location: Nitra
(0.0000°N, 18.0833°E)
Time: 23:53:11
(UTC+02:00)

N. Korean satellite - Pass Details

Date: 29 April 2021
Orbit: 451 x 500 km, 97.2° (Epoch: 07 May)

Event Time Altitude Azimuth Distance (km) Brightness Sun altitude
Rises 05:20:32 0° 28° (NNE) 2,454 10.8 -20.4°
Reaches altitude 10° 05:22:45 10° 39° (NE) 1,580 9.9 -19.9°
Maximum altitude 05:25:43 29° 101° (E) 862 8.4 -19.2°
Drops below altitude 10° 05:28:41 10° 162° (SSE) 1,581 9.2 -18.5°
Sets 05:30:53 0° 174° (S) 2,455 10.0 -17.9°
